Change the Weather History Date:

Sunday, November 10, 2013

  Actual Average Record
Temperature  
Mean Temperature 60 °F -  
Max Temperature 75 °F 71 °F 87 °F (1989)
Min Temperature 46 °F 50 °F 40 °F (1952)
Degree Days  
Heating Degree Days 4    
Growing Degree Days 10 (Base 50)    
Moisture  
Dew Point 46 °F    
Average Humidity 71    
Maximum Humidity 93    
Minimum Humidity 28    
Precipitation  
Precipitation 0.00 in - - ()
Sea Level Pressure  
Sea Level Pressure 30.07 in    
Wind  
Wind Speed 5 mph (North)    
Max Wind Speed 15 mph    
Max Gust Speed -    
Visibility 10 miles    
Events      
Averages and records for this station are not official NWS values.
T = Trace of Precipitation, MM = Missing Value Source: NWS Daily Summary

Daily Weather History Graph

Daily Weather History Graph

Search for Another Location

Airport or City:

Trip Planner

Search our weather history database for the weather conditions in past years. The results will help you decide how hot, cold, wet, or windy it might be!

Date:

Astronomy

Nov. 10, 2013 Rise Set
Actual Time 6:25 AM PST 4:55 PM PST
Civil Twilight 5:58 AM PST 5:22 PM PST
Nautical Twilight 5:28 AM PST 5:52 PM PST
Astronomical Twilight 4:59 AM PST 6:21 PM PST
Moon 12:47 PM PST (11/10) No Moon Set
Length of Visible Light 11h 23m
Length of Day
10h 30m
First Quarter, 56% of the Moon is Illuminated
Nov 10
First Quarter
Nov 17
Full
Nov 25
Last Quarter
Dec 2
New
Dec 9
First Quarter

Hourly Weather History & Observations

Time (PST) Temp. Dew Point Humidity Pressure Visibility Wind Dir Wind Speed Gust Speed Precip Events Conditions
12:51 AM 51.1 °F 46.9 °F 86% 30.06 in 10.0 mi Calm Calm - N/A   Clear
1:51 AM 50.0 °F 43.0 °F 77% 30.05 in 10.0 mi NE 3.5 mph - N/A   Clear
2:51 AM 50.0 °F 43.0 °F 77% 30.05 in 10.0 mi East 4.6 mph - N/A   Clear
3:51 AM 50.0 °F 39.9 °F 68% 30.05 in 10.0 mi Calm Calm - N/A   Clear
4:51 AM 48.9 °F 37.9 °F 66% 30.07 in - Calm Calm - N/A   Clear
5:51 AM 46.9 °F 37.0 °F 68% 30.08 in 10.0 mi Calm Calm - N/A   Clear
6:51 AM 48.9 °F 35.1 °F 59% 30.09 in 10.0 mi East 3.5 mph - N/A   Clear
7:51 AM 52.0 °F 43.0 °F 71% 30.10 in 10.0 mi NE 8.1 mph - N/A   Clear
8:51 AM 59.0 °F 30.0 °F 33% 30.10 in 10.0 mi ENE 12.7 mph - N/A   Clear
9:51 AM 64.9 °F 33.1 °F 31% 30.09 in 10.0 mi NE 13.8 mph - N/A   Clear
10:51 AM 75.0 °F 39.9 °F 28% 30.07 in 10.0 mi ENE 9.2 mph - N/A   Clear
11:51 AM 68.0 °F 48.0 °F 49% 30.08 in 10.0 mi WSW 8.1 mph - N/A   Clear
12:51 PM 64.9 °F 54.0 °F 68% 30.07 in 10.0 mi West 13.8 mph - N/A   Clear
1:51 PM 64.0 °F 55.0 °F 73% 30.06 in 10.0 mi West 15.0 mph - N/A   Clear
2:51 PM 64.0 °F 51.1 °F 63% 30.06 in 10.0 mi West 11.5 mph - N/A   Clear
3:51 PM 62.1 °F 54.0 °F 75% 30.06 in 10.0 mi WNW 11.5 mph - N/A   Clear
4:51 PM 60.1 °F 54.0 °F 80% 30.07 in 10.0 mi WNW 10.4 mph - N/A   Clear
5:51 PM 57.9 °F 54.0 °F 87% 30.08 in 10.0 mi West 10.4 mph - N/A   Clear
6:51 PM 55.9 °F 54.0 °F 93% 30.08 in 10.0 mi WNW 5.8 mph - N/A   Clear
7:51 PM 55.0 °F 52.0 °F 89% 30.09 in 8.0 mi NNW 4.6 mph - N/A   Clear
8:51 PM 54.0 °F 52.0 °F 93% 30.08 in 8.0 mi NNE 4.6 mph - N/A   Clear
9:51 PM 52.0 °F 50.0 °F 93% 30.08 in 8.0 mi North 3.5 mph - N/A   Clear
10:51 PM 52.0 °F 46.9 °F 83% 30.08 in 10.0 mi North 3.5 mph - N/A   Clear
11:51 PM 50.0 °F 46.9 °F 89% 30.06 in 10.0 mi North 3.5 mph - N/A   Clear